Wetbulb
66.77 65.82 61.62 61.76 54.46 53.28 52.33 53.96 55.91 53.30 53.45 57.12 57.94 56.63 56.70 58.59 56.77 56.57 70.68 71.79 71.65 75.47 75.38 76.58 76.87 77.57 78.15 78.28 77.92 77.52 77.22 77.14 76.99 77.14 76.99 77.21 77.26 77.17 76.69 76.26 75.31 74.65 73.71 72.23 70.85 69.63 68.57 67.66 67.22
64.45 63.82 61.39 58.73 52.16 49.78 52.19 56.39 52.89 55.44 56.36 57.19 57.21 57.20 56.36 55.91 61.62 65.18 69.12 72.65 71.63 76.23 75.71 75.36 76.62 77.12 77.72 77.84 77.59 77.33 77.34 77.19 77.01 77.01 77.22 77.31 77.16 76.86 76.29 75.66 74.62 73.78 72.42 71.01 69.82 69.17 68.63 68.46 67.94
64.87 63.55 57.00 54.52 52.74 51.07 51.53 54.27 54.45 55.97 55.99 56.01 56.17 59.02 58.44 59.72 64.84 66.15 70.80 73.47 71.52 75.94 75.90 75.51 76.44 76.57 77.27 77.69 77.56 77.33 77.20 77.36 77.36 77.21 77.24 77.24 76.91 76.48 75.91 75.26 74.53 73.05 71.59 70.40 69.67 69.41 69.49 69.10 68.45
62.02 61.55 58.17 51.11 49.70 54.44 55.72 55.96 54.64 54.88 55.95 56.47 57.33 56.48 60.35 64.63 65.01 69.84 72.83 73.58 72.24 74.47 75.90 76.04 76.01 76.14 76.82 77.09 77.20 77.20 77.33 77.30 77.36 77.39 77.29 77.06 76.68 76.08 75.45 75.09 74.26 73.32 71.70 70.62 70.41 70.28 69.82 69.36 68.95
62.73 58.93 53.16 51.85 51.11 53.73 57.54 58.52 56.22 53.72 55.17 55.49 56.64 56.24 58.98 64.09 67.26 70.63 73.10 73.29 72.63 73.71 75.47 76.86 75.96 75.91 76.36 76.69 76.51 76.70 76.90 76.97 77.08 77.18 77.01 76.83 76.28 75.63 74.88 74.49 73.70 73.17 72.49 71.61 71.01 70.76 70.82 70.52 69.64
57.32 58.00 50.55 48.98 51.64 54.35 54.82 54.77 56.70 55.66 55.81 56.16 54.92 57.30 60.00 65.48 65.06 70.10 73.14 72.98 72.86 73.51 75.18 77.43 75.70 75.81 75.74 76.06 76.04 75.78 75.97 76.24 76.60 76.68 76.35 76.05 75.48 74.91 74.46 73.96 73.75 73.53 73.15 72.75 71.90 71.56 71.26 71.37 70.32
54.89 54.04 51.03 50.88 51.38 53.38 54.85 56.40 54.74 56.61 56.27 56.28 58.56 56.41 61.16 63.32 63.97 69.77 72.56 72.36 72.82 73.70 74.22 77.41 75.54 76.25 76.04 75.91 75.80 75.67 75.50 75.32 75.47 75.34 75.24 75.25 74.93 74.48 73.96 73.59 73.54 73.53 73.22 73.10 72.79 72.33 71.56 71.14 70.57
56.61 54.64 50.96 51.85 50.84 51.71 56.56 56.26 56.53 55.59 56.81 60.27 60.12 56.30 58.82 62.17 63.92 65.87 71.23 71.42 71.67 72.56 73.28 76.37 75.01 75.40 75.44 75.43 76.23 75.77 75.64 75.66 75.26 75.29 75.12 74.91 74.75 74.06 73.61 73.06 73.19 73.24 73.38 73.23 73.04 72.64 71.90 71.25 70.96
57.56 51.00 48.55 50.29 51.16 52.94 56.84 55.65 57.44 58.32 57.20 59.52 59.61 59.36 61.70 62.80 63.34 63.63 66.56 70.61 69.91 70.90 72.73 74.95 74.21 74.62 74.79 74.25 75.59 75.66 75.61 75.38 75.17 74.81 75.05 74.16 71.94 73.10 72.56 71.60 72.97 73.39 73.26 73.19 73.04 72.92 72.40 71.16 70.64
53.57 50.32 50.02 53.49 54.21 53.82 55.41 56.14 56.26 55.98 55.88 56.19 57.66 60.66 61.92 61.68 61.61 61.51 62.71 66.88 69.13 69.53 71.31 73.04 73.84 74.32 74.22 72.89 75.32 75.05 74.48 74.36 73.79 73.36 73.91 73.32 72.65 73.69 72.15 72.87 73.30 73.21 73.24 73.24 73.09 72.99 72.03 70.91 68.23
53.26 49.93 53.16 53.64 54.69 55.05 54.32 55.28 57.50 55.47 53.63 55.86 55.48 58.58 60.12 60.22 60.94 60.93 61.56 64.32 68.55 69.41 70.50 71.56 74.88 76.94 74.13 72.68 73.28 74.35 73.30 73.39 74.14 74.53 75.62 75.36 73.09 73.57 73.17 72.83 72.02 72.19 71.89 69.87 71.18 70.79 70.12 69.19 69.00
49.87 52.49 53.22 53.75 54.44 54.13 53.11 55.53 55.13 56.18 56.64 57.91 57.90 59.90 59.77 59.46 60.07 59.95 60.69 62.37 66.40 69.51 69.04 70.81 73.39 75.44 76.89 73.88 72.69 74.07 72.70 73.73 73.53 73.73 77.51 76.60 74.06 75.97 76.02 72.77 73.22 73.57 71.73 71.68 71.30 70.62 72.25 71.30 70.82
49.41 50.48 52.21 53.11 53.04 53.01 54.04 53.53 54.02 54.89 57.60 59.10 58.02 57.33 59.04 59.69 59.55 60.05 61.17 62.23 64.94 67.27 70.14 69.82 72.27 75.29 76.16 77.65 74.25 74.43 74.49 72.83 73.80 74.18 76.24 75.21 74.65 76.06 74.86 74.93 72.60 73.02 71.92 71.37 71.00 70.54 71.23 70.60 71.04
50.21 49.73 49.85 51.15 51.70 51.95 51.06 51.83 52.50 53.74 56.68 56.80 56.23 55.61 57.48 59.78 59.00 58.71 59.11 61.93 65.19 68.26 68.80 71.17 70.82 75.56 74.78 75.58 77.56 76.78 76.75 74.64 73.82 73.96 75.06 77.45 75.68 77.01 73.91 73.82 72.50 71.69 71.06 70.17 70.28 70.78 70.65 71.15 71.19
49.87 47.07 48.92 49.55 50.12 49.94 51.48 48.20 48.91 52.96 54.30 54.36 54.52 55.51 57.38 59.27 58.06 57.69 58.56 61.33 63.49 66.03 68.32 69.29 71.45 74.20 74.76 75.41 75.03 75.70 73.87 74.10 73.65 73.61 77.66 76.89 77.31 77.67 76.18 72.69 72.43 71.37 72.27 73.02 72.40 71.96 71.55 70.41 71.07
46.76 47.01 43.34 48.08 49.11 49.85 49.32 44.37 50.12 52.91 52.86 52.64 53.27 54.29 57.15 58.30 57.55 57.61 58.21 59.87 62.52 62.92 63.24 67.11 69.44 71.51 74.70 74.71 74.35 73.45 72.91 73.45 72.78 73.28 74.00 76.03 77.17 77.19 76.45 72.36 71.52 71.78 71.37 70.42 70.88 70.82 70.56 71.04 71.38
46.44 42.29 44.11 45.85 48.61 48.02 48.01 45.46 49.86 52.63 52.41 51.85 52.82 53.79 54.43 57.73 59.30 58.57 58.37 58.81 60.05 62.09 63.56 64.23 67.81 69.16 72.44 75.16 74.17 74.66 75.01 72.91 71.57 72.35 71.31 74.10 74.48 74.72 75.01 72.68 71.95 74.76 70.69 71.51 71.70 71.46 71.79 71.81 70.74
42.87 43.75 44.92 43.65 47.52 47.83 46.35 46.36 49.38 51.58 51.38 51.31 52.07 53.05 53.37 56.41 59.44 58.01 58.41 59.04 59.64 62.76 64.65 65.62 66.94 68.20 69.63 73.42 74.58 73.86 72.88 72.67 72.90 71.98 71.77 73.78 73.01 72.72 72.40 71.93 72.69 73.31 70.86 71.31 72.01 72.46 71.85 72.06 72.29
45.42 43.78 43.24 45.68 47.82 46.06 45.53 46.30 48.14 50.75 51.14 50.82 51.37 52.07 52.82 54.82 57.39 57.68 58.18 58.43 61.27 62.29 63.88 64.12 64.66 67.54 68.23 69.37 70.90 71.40 70.73 72.04 71.70 72.29 73.52 74.02 73.41 72.27 73.28 71.17 72.42 73.10 71.39 70.73 74.12 73.35 73.14 70.82 72.97
44.03 42.52 42.67 45.51 47.42 46.70 45.64 45.37 48.36 49.66 50.19 51.03 51.36 51.80 52.45 53.64 55.18 55.75 56.21 57.65 59.40 61.49 62.68 62.39 62.62 65.20 66.96 68.25 70.91 70.93 72.88 73.62 73.15 72.81 73.40 74.20 73.40 74.76 73.93 71.29 71.28 73.06 71.31 73.36 74.52 73.71 70.84 71.29 73.19
43.59 42.57 42.99 42.95 45.78 46.87 45.27 43.47 45.83 48.72 50.10 51.04 51.66 52.54 53.05 53.26 53.58 55.50 55.74 56.87 59.31 59.24 60.42 61.53 62.68 64.51 65.80 66.69 67.22 68.63 70.98 72.04 71.37 72.74 73.96 73.65 73.32 73.50 73.04 71.77 71.18 73.30 72.60 72.54 73.57 73.59 72.14 69.72 72.74
41.32 45.88 44.61 43.25 42.24 38.53 45.93 37.52 44.79 47.51 47.66 48.92 49.92 50.71 52.00 52.58 53.46 54.42 55.29 56.17 57.95 58.01 59.51 60.85 62.83 63.55 65.07 68.60 67.18 69.42 66.32 65.42 67.84 69.15 71.94 73.44 74.92 73.10 73.18 73.51 71.86 73.58 74.18 72.53 74.47 73.61 74.35 74.30 70.63
43.12 46.37 44.51 44.06 42.34 41.85 41.66 39.46 42.80 46.78 45.74 47.17 49.25 50.77 52.31 53.06 53.75 54.10 54.63 55.66 56.80 57.61 58.98 60.78 62.60 63.80 64.70 66.97 67.65 65.15 66.77 64.53 66.93 68.88 71.39 73.83 77.14 73.81 72.68 74.26 73.12 74.00 73.18 72.06 74.71 76.72 74.72 73.92 72.57
46.67 44.56 44.25 44.10 42.18 36.08 41.14 40.44 40.59 43.45 45.43 47.15 49.07 49.73 50.97 51.79 54.21 55.66 56.16 56.75 56.92 58.05 58.75 60.64 61.59 62.81 64.12 64.71 66.15 66.91 66.39 67.18 65.66 67.42 68.93 69.62 70.60 72.03 72.30 73.69 73.92 74.58 72.85 73.49 75.39 76.72 74.11 73.45 74.76
45.39 42.39 35.63 34.73 35.17 35.06 43.17 39.59 41.70 45.62 46.42 47.54 48.75 49.42 50.49 51.91 53.57 54.85 55.31 55.43 56.49 57.40 58.87 60.27 60.64 61.12 63.05 63.20 63.94 64.69 66.85 67.17 66.54 67.39 66.10 68.22 68.43 72.57 74.11 73.56 74.36 74.99 73.53 74.58 76.11 76.01 74.85 75.70 74.17
43.24 42.70 36.15 28.91 31.05 34.52 40.60 36.70 41.31 47.12 48.93 48.40 48.62 49.92 50.72 52.85 53.80 53.78 54.79 55.62 56.12 57.56 58.27 59.74 60.16 60.81 62.00 62.86 63.42 64.25 66.00 64.41 64.98 66.61 65.95 65.66 67.36 68.97 74.80 77.29 76.47 76.60 76.33 75.41 76.14 75.21 75.27 75.98 74.54
43.06 39.19 43.43 37.93 39.33 34.26 38.25 41.88 45.64 47.19 47.02 47.34 48.64 50.19 50.87 52.11 53.28 54.06 55.11 55.95 56.57 57.76 59.19 59.51 59.41 60.33 61.24 62.24 63.35 64.30 65.33 67.36 66.81 69.20 69.75 66.62 69.49 69.22 70.30 75.84 77.81 76.77 76.64 77.09 77.06 75.72 76.00 75.05 74.73
44.33 45.63 36.45 37.29 29.20 28.72 35.30 36.57 38.07 43.21 44.83 46.99 47.90 49.06 50.55 51.75 53.04 53.88 54.78 55.95 57.08 58.23 59.05 59.84 60.09 59.36 59.75 60.96 62.02 62.59 64.00 64.88 66.42 69.11 69.61 69.68 70.10 70.55 71.17 72.61 75.25 76.40 76.62 77.39 77.46 75.94 75.92 74.00 73.51
41.24 39.47 41.24 40.34 37.08 30.47 30.28 35.35 44.67 43.71 44.61 46.89 48.31 49.53 50.47 52.07 53.00 53.81 54.69 56.11 56.77 57.88 58.09 59.06 59.30 59.15 59.18 59.92 61.64 61.73 62.29 63.45 64.68 66.38 67.90 69.59 71.41 71.32 70.80 71.27 73.69 74.56 76.52 77.28 76.47 75.57 73.51 72.78 73.99
44.97 41.94 41.10 35.20 33.75 36.25 35.84 35.96 46.94 47.43 47.16 49.02 48.83 49.96 51.33 52.70 53.19 54.10 54.92 55.08 55.17 55.99 57.03 58.51 58.40 57.66 58.17 58.75 58.93 60.58 61.85 61.91 64.22 64.59 65.70 68.39 69.45 70.91 71.35 71.03 70.56 72.79 74.02 75.68 74.63 73.77 72.38 73.37 73.63
MSLP
1009.73 1007.81 1007.19 1006.09 1004.44 1001.93 999.67 998.29 997.69 998.46 999.23 999.38 999.58 999.49 999.11 998.44 998.61 999.29 1000.97 1001.45 1001.93 1003.21 1005.27 1006.49 1007.02 1007.61 1008.34 1008.81 1009.09 1009.52 1010.00 1010.39 1010.74 1011.08 1011.59 1011.98 1012.26 1012.54 1012.79 1013.03 1013.26 1013.55 1013.75 1013.95 1014.07 1014.14 1014.29 1014.45 1014.54
1009.23 1007.72 1006.89 1005.27 1003.57 1000.94 999.20 998.35 998.70 999.08 999.54 1000.53 1000.42 1000.06 999.93 999.56 999.84 1000.96 1000.94 1002.46 1002.45 1003.62 1005.28 1006.17 1007.05 1007.62 1008.16 1008.86 1009.31 1009.55 1009.95 1010.43 1010.94 1011.32 1011.61 1011.98 1012.38 1012.68 1012.98 1013.24 1013.50 1013.70 1013.88 1014.13 1014.26 1014.32 1014.38 1014.40 1014.59
1009.02 1007.80 1006.53 1004.56 1003.14 1001.59 999.39 999.09 999.32 999.59 1000.80 1000.86 1000.42 1000.38 1000.37 1000.64 1001.37 1002.25 1002.16 1002.82 1002.97 1003.80 1005.21 1005.88 1006.99 1007.34 1008.13 1008.92 1009.31 1009.67 1009.94 1010.35 1010.80 1011.31 1011.76 1012.10 1012.47 1012.86 1013.09 1013.38 1013.51 1013.71 1013.88 1014.01 1014.23 1014.45 1014.45 1014.43 1014.50
1007.79 1006.60 1006.08 1004.79 1002.84 1001.72 1001.30 1001.10 1001.21 1000.49 1001.19 1001.14 1000.86 1000.79 1001.09 1002.18 1002.60 1002.97 1002.95 1002.87 1003.02 1003.49 1004.78 1006.17 1007.25 1007.34 1008.06 1008.96 1009.58 1009.93 1010.08 1010.43 1010.96 1011.31 1011.71 1012.10 1012.50 1012.85 1013.22 1013.45 1013.77 1014.01 1014.12 1014.22 1014.27 1014.57 1014.75 1014.76 1014.75
1007.46 1006.35 1004.80 1003.73 1002.86 1002.16 1001.78 1002.53 1002.36 1001.74 1001.23 1001.14 1000.83 1000.80 1001.12 1002.10 1002.96 1003.20 1002.93 1002.68 1002.67 1003.07 1004.23 1006.24 1007.47 1007.71 1007.89 1008.82 1009.61 1010.06 1010.46 1010.73 1011.12 1011.43 1011.86 1012.23 1012.61 1012.88 1013.34 1013.71 1013.87 1014.10 1014.39 1014.56 1014.53 1014.65 1014.93 1015.04 1015.13
1006.62 1005.80 1004.57 1003.17 1002.36 1002.21 1002.40 1003.42 1003.25 1002.74 1001.69 1001.16 1001.16 1001.06 1001.19 1001.91 1002.81 1003.01 1003.13 1002.49 1002.40 1002.80 1003.99 1005.71 1007.50 1008.27 1008.33 1008.73 1009.59 1010.13 1010.68 1011.06 1011.34 1011.80 1012.17 1012.50 1012.80 1013.20 1013.41 1013.77 1013.95 1014.07 1014.38 1014.70 1014.70 1014.76 1015.08 1015.41 1015.45
1006.42 1005.34 1004.14 1003.44 1002.18 1001.56 1002.26 1003.75 1003.66 1003.16 1001.90 1001.30 1001.10 1001.33 1001.06 1001.85 1002.99 1002.61 1002.94 1002.97 1002.63 1002.74 1003.90 1005.59 1006.82 1008.03 1008.76 1009.07 1009.64 1010.19 1010.65 1011.20 1011.69 1011.97 1012.33 1012.53 1012.91 1013.34 1013.64 1013.82 1014.08 1014.23 1014.45 1014.61 1014.86 1014.95 1014.92 1015.31 1015.60
1006.06 1005.48 1004.21 1003.08 1002.24 1001.58 1001.68 1003.10 1004.18 1003.81 1003.14 1002.00 1002.74 1002.08 1001.55 1002.74 1003.07 1002.39 1002.22 1002.84 1002.82 1002.81 1003.70 1005.14 1006.69 1007.45 1008.01 1008.79 1009.70 1010.20 1010.72 1011.21 1011.77 1012.16 1012.57 1012.74 1013.00 1013.44 1013.78 1013.99 1014.29 1014.38 1014.55 1014.73 1014.88 1015.12 1015.16 1015.16 1015.22
1006.15 1005.09 1003.29 1002.65 1002.08 1001.57 1001.63 1001.95 1003.42 1004.39 1004.19 1003.52 1002.55 1002.63 1002.69 1003.31 1003.07 1002.40 1002.05 1002.50 1002.77 1002.79 1003.62 1004.58 1005.98 1007.01 1007.47 1007.85 1009.01 1010.12 1010.69 1011.32 1011.85 1012.19 1012.54 1012.88 1012.61 1012.91 1013.34 1013.56 1013.81 1014.21 1014.44 1014.58 1014.82 1015.00 1015.35 1015.23 1015.03
1005.20 1003.99 1002.90 1002.80 1002.07 1001.42 1001.27 1001.32 1002.42 1003.92 1004.07 1004.42 1003.71 1002.81 1002.89 1003.44 1003.40 1002.89 1002.36 1002.09 1002.95 1003.04 1003.51 1004.07 1005.40 1006.30 1007.02 1007.13 1008.14 1009.33 1009.94 1010.57 1011.17 1011.54 1011.86 1012.21 1012.04 1012.00 1012.37 1012.76 1013.63 1014.13 1014.35 1014.46 1014.61 1014.68 1015.00 1015.05 1014.09
1004.53 1003.27 1002.99 1002.30 1002.05 1001.80 1001.36 1001.17 1001.77 1002.49 1003.70 1004.19 1004.56 1003.46 1003.46 1003.95 1003.83 1003.39 1002.71 1002.98 1003.00 1003.18 1003.65 1004.10 1005.18 1006.03 1006.71 1006.71 1007.33 1008.51 1008.90 1009.72 1010.38 1010.88 1011.27 1011.52 1011.29 1011.40 1011.86 1012.14 1013.08 1013.54 1014.11 1013.85 1014.03 1014.22 1014.41 1013.99 1013.40
1003.89 1003.48 1003.19 1002.74 1002.37 1001.88 1001.44 1001.70 1001.72 1001.96 1002.31 1003.59 1004.25 1004.27 1004.18 1004.13 1003.98 1003.76 1003.39 1003.18 1003.43 1003.24 1003.65 1004.21 1004.98 1006.10 1006.64 1006.67 1007.04 1007.51 1008.20 1008.63 1009.35 1010.00 1010.68 1010.86 1011.23 1010.98 1011.24 1011.46 1011.55 1012.38 1012.44 1012.90 1012.75 1012.45 1012.65 1012.74 1012.85
1003.65 1003.43 1003.10 1002.96 1002.72 1002.60 1002.29 1001.88 1002.10 1002.00 1002.26 1003.05 1004.10 1004.74 1003.94 1003.97 1004.24 1004.10 1003.77 1003.41 1004.25 1003.94 1003.67 1004.21 1005.21 1006.32 1007.09 1007.18 1006.80 1007.22 1007.59 1008.12 1008.49 1009.08 1009.86 1010.48 1010.58 1010.94 1011.02 1011.21 1011.11 1011.06 1011.25 1011.62 1012.08 1011.89 1011.74 1011.87 1012.18
1003.99 1003.63 1003.50 1003.23 1002.59 1003.06 1002.68 1002.26 1002.50 1002.11 1002.46 1002.54 1003.16 1003.98 1003.67 1003.41 1004.17 1004.35 1004.43 1003.92 1004.53 1004.87 1004.69 1004.77 1005.19 1006.33 1007.33 1007.87 1007.71 1007.57 1007.69 1007.47 1008.14 1008.40 1008.93 1010.01 1010.32 1010.33 1010.68 1011.24 1011.27 1011.13 1011.00 1010.93 1011.19 1011.16 1011.38 1011.73 1011.94
1004.71 1004.33 1003.88 1003.37 1002.99 1002.79 1002.99 1002.20 1001.63 1001.99 1002.09 1001.72 1002.52 1003.26 1003.01 1003.12 1003.90 1004.22 1004.57 1005.04 1005.39 1005.69 1005.97 1005.52 1005.48 1005.94 1006.95 1007.54 1008.02 1008.32 1007.98 1007.92 1007.89 1008.15 1008.66 1009.31 1010.16 1010.13 1010.49 1010.64 1010.88 1010.84 1010.83 1010.85 1010.97 1011.22 1011.32 1011.48 1011.65
1005.09 1004.26 1002.98 1002.14 1002.11 1002.35 1003.05 1001.10 1001.19 1001.28 1001.06 1001.31 1002.09 1002.62 1002.51 1002.97 1003.59 1004.14 1004.59 1005.59 1006.25 1006.22 1006.44 1006.46 1005.19 1005.89 1006.38 1007.26 1007.87 1008.20 1008.15 1008.06 1008.18 1008.15 1008.45 1009.04 1009.61 1010.02 1010.31 1010.13 1010.15 1010.21 1010.44 1010.53 1010.62 1010.84 1010.81 1010.38 1010.44
1003.77 1002.70 1001.85 1001.14 1001.37 1002.12 1002.23 1001.11 1001.09 1000.93 1001.51 1001.98 1002.36 1002.20 1002.51 1002.55 1003.03 1004.05 1004.70 1005.51 1006.39 1006.43 1006.42 1006.47 1006.23 1005.23 1006.38 1007.00 1007.49 1007.86 1007.81 1007.97 1007.61 1007.99 1008.06 1008.86 1009.45 1009.56 1009.84 1009.96 1009.81 1009.85 1009.98 1010.09 1009.97 1009.84 1009.59 1009.83 1009.20
1001.91 1001.58 1001.51 1001.19 1001.41 1002.17 1002.21 1001.30 1001.03 1000.54 1001.43 1001.93 1002.22 1002.36 1002.62 1002.25 1002.20 1003.44 1004.65 1005.30 1006.11 1006.19 1006.43 1006.12 1006.19 1006.36 1006.01 1006.85 1007.50 1007.69 1007.62 1007.62 1007.41 1007.36 1007.61 1008.30 1008.90 1009.13 1009.67 1009.36 1009.29 1009.51 1009.63 1009.36 1009.07 1009.54 1009.47 1009.34 1008.91
1003.53 1003.36 1002.45 1002.02 1001.90 1002.01 1002.23 1001.68 1001.00 1000.61 1000.60 1000.97 1001.43 1001.76 1002.16 1002.58 1002.78 1003.39 1004.30 1005.12 1005.73 1005.88 1006.02 1006.44 1006.48 1007.02 1007.00 1007.21 1007.41 1007.20 1006.28 1006.98 1006.80 1006.91 1006.74 1007.09 1007.82 1008.70 1008.99 1009.19 1008.78 1008.95 1009.10 1009.15 1009.22 1009.00 1009.25 1009.46 1008.60
1004.45 1003.71 1002.97 1002.55 1002.31 1002.49 1002.28 1001.72 1001.34 1000.77 1000.33 1000.41 1000.60 1000.97 1001.54 1002.45 1003.25 1003.66 1004.48 1005.05 1005.14 1005.19 1006.03 1006.50 1006.98 1007.42 1007.45 1007.10 1007.19 1007.51 1006.35 1006.16 1005.91 1005.68 1006.17 1006.33 1006.94 1007.53 1008.37 1008.38 1008.00 1007.97 1008.25 1008.76 1008.72 1008.55 1008.22 1008.27 1007.98
1004.17 1003.64 1003.20 1002.88 1002.59 1002.52 1002.60 1001.40 1000.71 999.80 999.34 999.78 999.99 1000.31 1000.58 1001.26 1002.29 1003.23 1004.35 1005.18 1005.20 1005.15 1005.76 1006.25 1006.79 1006.89 1006.92 1006.38 1006.62 1006.48 1006.28 1006.17 1005.91 1005.72 1005.46 1004.56 1006.32 1006.76 1007.44 1008.02 1008.18 1007.61 1007.75 1007.13 1007.84 1008.09 1007.82 1006.98 1007.41
1003.79 1003.66 1003.43 1003.30 1003.62 1002.42 1001.88 999.91 999.50 999.12 998.99 999.19 999.50 1000.07 1000.48 1001.48 1002.82 1003.65 1004.72 1005.34 1005.47 1005.20 1005.75 1006.19 1006.48 1006.33 1006.42 1006.47 1006.07 1005.99 1006.10 1005.75 1005.61 1005.75 1004.77 1004.67 1005.00 1005.77 1007.02 1007.45 1007.61 1007.23 1006.95 1006.51 1006.72 1007.20 1007.08 1007.38 1007.19
1004.04 1004.09 1004.31 1004.12 1003.61 1003.03 1002.01 1000.79 999.02 998.54 997.98 998.58 999.37 999.87 1000.72 1001.63 1002.36 1003.74 1004.55 1004.99 1005.49 1005.40 1005.84 1006.04 1006.36 1006.30 1006.54 1006.03 1005.82 1006.32 1005.47 1005.14 1004.73 1004.67 1003.91 1002.92 1003.56 1005.21 1006.28 1006.69 1006.97 1006.74 1006.64 1006.33 1005.94 1006.09 1006.88 1006.71 1007.38
1004.87 1004.56 1004.68 1004.28 1003.50 1002.05 1000.81 1000.05 998.32 997.64 997.59 998.70 999.93 1000.59 1000.95 1001.60 1002.26 1003.37 1004.11 1004.75 1004.88 1005.25 1005.58 1005.88 1006.14 1005.95 1006.11 1005.99 1005.83 1005.78 1005.26 1005.26 1004.49 1003.56 1002.86 1002.95 1003.34 1004.33 1004.19 1006.16 1006.59 1005.03 1006.21 1005.77 1005.52 1005.64 1005.46 1005.14 1006.47
1004.71 1004.84 1003.83 1002.93 1001.60 1000.06 998.97 998.78 998.00 997.99 998.65 998.80 999.66 1000.47 1001.27 1001.75 1002.07 1002.56 1002.98 1003.39 1003.70 1004.53 1004.93 1005.37 1005.59 1005.61 1005.99 1005.84 1005.53 1005.20 1005.49 1005.07 1004.75 1004.36 1003.88 1003.60 1003.44 1003.20 1003.29 1004.87 1004.51 1004.31 1005.22 1004.87 1004.78 1005.06 1004.84 1004.88 1005.82
1003.42 1004.13 1003.64 1002.51 1001.75 1000.44 999.95 999.02 997.96 998.19 998.62 999.95 1000.65 1000.99 1001.35 1001.90 1001.76 1002.35 1002.89 1003.37 1003.66 1003.78 1004.39 1004.53 1004.83 1004.88 1005.21 1004.79 1005.15 1005.21 1005.15 1004.68 1004.35 1004.04 1003.88 1003.71 1003.44 1002.99 1002.37 1002.67 1003.40 1003.53 1003.86 1004.12 1004.14 1004.21 1004.06 1004.72 1005.51
1003.46 1003.46 1003.89 1003.77 1003.32 1002.22 1000.56 998.80 997.87 998.52 999.15 1000.15 1000.85 1001.18 1001.41 1001.65 1002.01 1002.51 1002.71 1002.76 1003.09 1003.40 1003.74 1003.98 1004.48 1004.46 1004.56 1004.65 1004.48 1004.37 1004.44 1004.20 1003.74 1003.86 1003.79 1003.53 1003.27 1002.76 1002.62 1001.93 1002.04 1002.63 1002.80 1002.90 1003.27 1003.23 1003.54 1003.91 1005.11
1004.05 1004.25 1004.37 1005.85 1003.85 1002.10 1000.65 999.16 997.65 997.37 999.15 999.90 1000.28 1000.88 1001.17 1001.67 1001.98 1001.97 1001.91 1002.06 1002.42 1002.72 1003.21 1003.53 1003.61 1003.81 1004.05 1004.02 1004.03 1003.99 1003.63 1003.58 1003.53 1003.23 1002.98 1002.87 1002.93 1002.67 1002.09 1001.93 1001.79 1001.89 1001.88 1002.15 1002.34 1002.69 1003.11 1003.52 1004.36
1003.81 1004.15 1004.61 1004.26 1003.96 1003.45 1001.82 1000.10 999.70 999.87 1000.53 1000.04 999.92 1000.17 1000.83 1001.16 1001.27 1001.53 1001.54 1001.70 1001.86 1001.89 1002.20 1002.50 1002.96 1003.25 1003.36 1003.53 1003.40 1003.13 1003.20 1003.11 1003.07 1002.77 1002.70 1002.47 1002.15 1002.11 1002.02 1001.85 1001.17 1001.22 1001.11 1001.05 1001.56 1002.06 1002.54 1003.02 1003.48
1004.45 1004.09 1004.81 1005.03 1004.73 1003.67 1002.75 1000.57 1000.82 1000.40 1000.68 1000.41 1000.04 1000.05 1000.34 1000.29 1000.62 1001.14 1001.37 1001.49 1001.64 1001.73 1001.73 1001.83 1002.55 1002.91 1002.83 1002.78 1002.50 1002.47 1002.42 1002.57 1002.53 1002.34 1002.32 1001.92 1001.32 1000.86 1000.85 1000.68 1000.66 1000.40 1000.32 1000.47 1000.97 1001.41 1001.35 1002.12 1002.49
Wind_Speed
19 10 8 7 9 9 16 18 0 2 5 3 7 6 9 15 13 6 7 8 9 18 20 20 18 17 14 12 15 15 14 14 14 15 13 13 13 12 12 12 11 10 10 9 8 8 7 7 7
12 12 8 9 10 14 12 16 6 9 9 4 9 11 12 12 9 7 11 10 7 18 19 20 18 17 16 13 12 15 15 15 14 14 14 14 13 12 12 12 11 10 9 8 8 8 8 8 7
14 9 9 10 12 16 14 11 3 5 1 8 4 4 7 7 12 10 13 7 2 15 18 19 19 19 17 13 13 14 15 15 15 15 14 14 13 12 12 11 11 11 10 10 9 8 8 7 7
7 9 7 10 18 16 25 16 4 6 6 5 5 8 5 8 11 13 14 9 7 15 18 21 18 19 18 14 12 12 14 15 15 15 15 14 13 12 11 11 9 8 9 9 9 8 6 6 6
8 8 12 15 17 19 15 16 19 11 12 7 7 12 3 7 12 13 11 7 11 15 17 20 18 17 20 16 13 11 11 12 13 14 14 13 12 12 10 9 9 8 7 8 8 8 6 5 5
11 10 15 16 20 15 6 8 21 19 14 11 4 14 7 9 14 12 11 5 12 15 17 19 17 13 17 18 14 11 9 9 10 10 11 11 11 10 10 9 9 8 7 6 7 7 6 5 6
16 14 19 22 21 16 12 7 12 19 19 10 5 3 4 14 14 8 6 3 9 15 16 16 20 16 13 14 14 11 10 8 7 8 9 10 10 9 8 8 8 7 7 6 6 7 7 6 6
14 16 26 23 18 22 11 14 9 12 25 4 3 8 3 12 12 13 7 2 10 14 16 16 17 18 18 15 12 12 10 9 7 7 7 8 9 8 7 7 7 7 6 6 6 7 7 7 7
20 18 20 25 24 19 15 14 13 13 16 26 9 7 7 8 14 11 9 6 7 12 14 15 18 17 17 17 15 12 12 10 8 8 8 8 9 11 12 11 11 10 8 7 7 7 7 7 9
21 18 26 24 21 21 21 19 14 12 14 21 24 15 4 10 15 13 8 8 10 12 14 14 16 17 17 14 15 15 13 11 11 12 12 10 11 9 11 11 12 11 9 8 8 8 8 9 9
21 24 23 21 23 24 24 24 12 16 13 15 20 27 13 12 15 12 13 6 9 11 11 13 12 12 15 14 12 9 9 9 10 14 11 11 9 8 8 5 7 8 10 8 11 10 8 11 9
24 25 22 22 25 25 22 19 21 22 18 16 12 25 21 17 13 14 15 5 6 9 15 12 13 9 11 10 11 11 10 10 9 12 12 8 8 7 5 7 9 8 8 9 8 7 9 11 11
21 21 20 22 19 23 23 22 23 24 16 11 10 18 28 19 16 16 12 4 3 4 5 14 11 10 7 9 8 9 10 11 12 11 12 10 9 7 7 6 7 6 7 8 7 8 7 9 10
16 13 18 22 21 19 23 23 22 26 21 21 17 19 27 23 15 12 11 10 1 0 2 4 11 11 11 10 10 5 5 9 10 11 11 13 9 7 8 7 7 7 7 6 7 8 8 7 8
13 17 18 19 18 21 19 26 28 24 23 22 18 19 21 16 12 9 6 6 4 2 5 3 8 11 13 13 11 9 8 9 9 10 8 12 12 8 9 9 8 8 7 6 7 7 6 6 8
16 18 19 20 23 22 19 25 25 25 23 24 15 18 16 20 12 6 3 0 4 3 3 7 4 9 9 10 8 9 10 8 9 8 9 10 11 11 10 9 10 9 7 9 9 9 9 9 7
18 16 18 20 5 8 18 25 19 22 11 12 14 16 15 21 18 9 6 5 2 3 4 5 4 6 2 8 10 10 9 10 10 10 9 8 13 14 11 10 9 9 9 8 9 10 9 7 6
12 15 13 11 8 14 17 20 19 13 13 15 15 15 16 16 21 13 9 6 3 4 5 8 7 6 5 3 6 8 8 9 8 10 9 14 11 12 11 12 10 10 10 10 11 8 10 8 5
14 16 16 16 8 10 13 19 19 18 18 16 16 16 15 15 13 10 9 6 7 4 6 6 6 6 3 3 7 8 8 10 8 10 11 12 13 15 14 12 11 12 12 11 10 10 9 9 6
15 17 17 16 14 13 16 20 20 20 20 19 18 18 17 17 14 12 5 7 4 2 4 3 0 3 5 3 3 8 4 6 8 7 10 11 11 12 13 13 12 14 12 13 12 11 10 10 6
16 16 16 17 15 15 16 25 25 24 28 24 24 21 20 20 18 15 10 9 5 4 1 1 3 5 5 3 6 5 4 6 6 7 7 9 14 12 15 14 13 13 14 12 13 12 12 9 8
16 14 15 10 14 14 17 17 18 18 13 14 13 12 13 5 7 9 10 9 6 2 1 4 3 3 7 5 5 6 7 8 8 9 5 9 11 15 16 17 16 16 12 14 11 11 10 8 9
16 17 10 15 17 19 21 15 16 20 17 9 9 11 13 13 12 7 7 4 5 3 4 4 4 5 6 5 6 7 9 9 7 7 7 6 7 13 14 16 17 15 13 12 12 9 7 6 9
13 13 15 18 17 18 22 19 18 16 15 13 9 8 7 6 10 11 10 8 7 5 5 3 4 4 6 7 8 9 11 11 10 10 6 6 7 8 9 19 19 17 15 13 12 10 12 11 9
13 15 14 17 16 17 18 7 12 6 5 2 15 11 8 6 8 12 10 7 5 6 6 5 5 4 5 7 9 10 10 10 12 11 9 10 8 12 14 20 18 16 16 13 11 13 11 9 11
17 16 13 18 17 18 4 8 8 7 12 8 6 9 5 9 8 3 5 7 8 7 5 7 6 6 7 7 7 9 10 10 10 11 11 11 11 13 13 14 18 17 16 14 13 11 11 11 11
17 18 19 15 19 18 21 27 25 15 12 8 10 10 10 7 7 8 12 10 9 7 8 7 8 8 7 8 8 9 10 11 11 12 10 11 12 12 15 13 13 15 16 16 15 12 11 10 11
18 17 15 7 14 21 19 22 15 18 15 15 13 10 10 5 11 12 13 11 10 9 9 11 11 9 10 9 8 10 11 11 12 11 13 13 13 14 15 15 14 14 15 17 14 12 11 11 10
15 17 20 19 15 15 17 13 14 11 3 9 11 7 6 13 10 12 12 11 12 11 11 10 9 11 12 10 10 10 10 13 13 12 12 14 13 14 16 17 14 15 16 14 13 12 13 14 13
16 22 18 11 11 14 17 18 6 1 7 11 7 7 13 12 10 11 11 11 12 11 12 9 9 11 13 13 13 13 11 13 13 12 15 14 16 14 16 16 16 16 15 14 15 16 15 15 15
Wind_Direction
284 272 297 270 247 230 250 236 282 41 240 227 339 284 271 315 349 26 108 41 103 138 157 164 151 147 153 162 157 153 151 153 154 152 150 150 149 149 142 142 145 147 141 141 138 134 131 129 124
300 301 249 276 259 254 227 246 151 239 53 346 255 238 247 270 32 19 358 16 114 134 157 171 157 152 151 161 161 155 154 154 155 156 157 154 154 151 148 149 149 151 148 146 148 146 143 139 137
266 277 278 245 230 252 262 16 25 201 84 260 280 6 352 15 25 338 332 33 193 147 162 167 164 153 151 160 162 162 157 158 160 161 159 159 155 153 154 155 157 160 160 159 157 157 155 151 149
278 232 234 251 264 223 264 299 46 325 226 225 269 265 149 71 358 343 318 304 226 169 166 148 168 155 150 157 164 166 162 161 164 163 165 163 160 161 159 158 158 163 168 168 162 165 171 168 161
243 265 264 248 249 265 198 241 292 295 281 254 227 257 231 81 15 352 323 271 204 180 170 154 169 165 152 153 164 164 172 167 168 167 167 164 165 159 160 160 161 167 178 182 173 172 180 185 185
256 246 259 250 240 237 202 248 251 267 277 261 243 248 254 68 7 354 341 264 200 180 170 155 165 179 159 153 160 162 168 172 170 170 165 163 161 162 161 164 169 174 182 196 189 178 189 202 209
249 255 246 256 266 245 191 227 271 246 266 279 277 230 248 40 348 348 14 315 217 180 174 153 175 181 169 155 154 159 159 161 172 162 161 160 157 161 168 171 177 178 192 195 203 200 194 204 222
246 251 255 256 254 261 230 195 230 274 267 253 267 241 272 26 333 330 57 321 217 182 176 156 177 184 185 178 159 160 159 156 159 154 157 157 145 159 180 173 185 186 197 208 210 221 216 212 221
234 245 248 248 251 251 253 214 202 248 220 285 253 279 335 336 330 328 339 137 240 181 181 168 174 184 192 185 175 166 166 163 163 166 168 166 203 186 184 200 170 186 205 206 213 220 233 232 235
229 238 244 254 261 263 260 251 203 206 240 218 287 257 194 348 326 330 332 330 180 208 192 178 181 183 194 191 176 193 194 200 202 204 196 212 213 206 207 190 168 189 201 212 217 219 231 238 257
226 243 255 254 253 260 267 260 249 216 222 247 214 273 319 315 313 319 322 9 314 219 200 194 176 179 200 201 180 186 196 195 200 210 210 200 209 215 195 180 181 206 199 222 202 210 227 247 250
250 246 257 265 269 271 268 274 267 262 236 209 258 236 268 295 303 311 307 11 296 287 192 198 172 197 200 211 192 185 196 190 197 200 200 218 214 206 229 212 201 186 190 212 235 217 213 230 243
242 256 261 266 258 276 275 251 255 261 256 224 235 257 247 259 297 303 300 275 264 254 289 193 198 190 229 250 239 209 195 198 201 199 192 211 211 221 201 232 236 205 207 200 224 233 238 234 234
272 261 268 258 255 255 257 260 262 256 261 251 224 248 258 236 271 294 305 299 221 236 97 261 196 178 201 233 265 252 232 209 207 205 199 196 217 202 209 208 214 240 228 231 229 225 236 225 239
264 271 260 255 261 252 258 257 250 255 260 252 232 241 252 235 236 272 289 313 357 291 289 321 201 182 190 208 226 245 226 245 213 218 199 191 205 228 206 207 212 221 226 232 242 258 232 243 245
251 250 256 246 231 235 238 257 252 246 245 246 243 250 244 221 221 250 224 232 5 21 28 272 156 169 181 199 220 226 222 219 232 233 215 211 194 224 197 216 205 218 218 217 224 223 228 212 207
227 252 255 243 176 258 249 255 258 253 218 243 255 256 250 251 215 206 197 202 112 41 17 355 314 88 152 196 225 225 234 218 225 217 221 206 218 209 221 223 212 210 214 223 223 223 222 220 196
288 248 223 268 226 196 250 256 251 251 207 238 246 237 251 247 235 187 190 145 183 103 39 12 18 38 11 271 207 224 219 230 216 223 208 206 213 217 209 218 220 202 222 220 224 222 228 245 184
316 290 285 288 269 273 263 273 272 258 242 233 238 240 244 242 252 204 165 244 157 110 94 32 3 340 116 247 232 216 202 216 206 226 226 214 197 210 207 223 211 206 223 229 221 217 232 230 192
266 267 266 266 263 271 279 273 274 272 264 256 249 248 225 228 215 232 199 241 231 80 97 122 190 295 286 181 219 265 249 210 198 197 214 211 227 218 226 221 225 209 214 221 223 220 219 218 196
252 261 276 283 299 288 285 268 255 250 237 245 242 241 242 212 229 208 220 232 228 181 70 326 298 299 287 317 267 219 251 271 268 228 219 173 213 217 225 224 236 225 223 209 212 218 219 221 193
271 277 284 267 274 267 280 290 284 285 232 215 239 220 236 177 208 227 205 209 221 221 202 275 291 305 296 305 297 280 265 253 231 242 226 184 193 209 223 233 227 238 224 226 197 214 226 229 244
285 300 284 275 272 280 267 263 270 253 246 246 231 196 197 185 190 193 210 173 213 191 223 232 259 267 252 277 298 277 272 265 256 247 251 170 176 200 218 235 233 237 234 224 241 191 180 225 254
286 281 261 259 253 252 257 251 264 262 199 168 180 183 208 201 187 189 185 207 214 205 210 207 260 261 278 267 256 270 285 288 294 307 329 269 236 206 195 239 240 222 226 229 201 211 185 191 233
230 257 263 256 241 245 250 248 273 355 73 298 169 204 206 228 226 217 216 246 226 235 231 222 212 252 271 260 259 255 263 277 283 281 277 277 267 232 200 213 229 224 222 216 220 209 216 188 216
258 243 272 284 286 296 346 246 251 247 185 165 300 269 225 222 237 230 268 274 280 266 242 269 268 271 284 294 258 252 260 260 256 246 253 257 252 256 259 203 211 219 218 219 223 216 204 199 206
263 271 261 291 269 270 278 284 282 172 171 198 212 205 214 229 249 258 267 262 262 276 277 255 271 277 273 283 288 280 267 263 263 269 275 272 266 261 273 249 209 214 215 220 211 214 200 193 208
265 277 273 246 263 263 259 259 270 196 188 190 199 207 229 250 261 271 279 281 268 265 266 256 256 272 284 279 267 274 278 277 276 271 250 252 264 275 276 270 226 212 218 222 203 206 199 191 200
247 240 253 260 246 254 274 286 67 65 49 224 199 206 250 263 281 295 290 287 284 266 262 268 275 284 284 285 284 272 272 273 275 270 267 277 251 245 248 250 246 227 219 208 199 205 197 196 203
242 269 231 244 262 271 277 271 189 27 240 223 218 229 260 285 289 280 287 290 287 284 272 272 278 282 283 283 288 291 281 275 269 268 271 269 270 255 248 236 236 230 220 207 200 203 199 198 199